Location: Rounton
(54.4000°N, 1.3500°W)
Time: 22:11:52
(UTC+00:00)

Vanguard 3 - Pass Details

Date: 08 December 2021
Orbit: 508 x 3260 km, 33.3° (Epoch: 17 January)

Event Time Altitude Azimuth Distance (km) Brightness Sun altitude
Rises 01:27:38 0° 205° (SSW) 6,516 - -54.1°
Reaches altitude 10° 01:32:59 10° 193° (SSW) 5,815 - -53.6°
Maximum altitude 01:46:12 25° 148° (SSE) 5,037 - -52.3°
Exits shadow 01:47:02 25° 145° (SE) 5,045 10.9 -52.2°
Drops below altitude 10° 01:59:40 10° 104° (ESE) 5,970 11.7 -50.9°
Sets 02:05:11 0° 93° (E) 6,725 12.2 -50.3°
